Skip Page Navigation
NASA JPL Caltech
NASA Logo - Jet Propulsion Laboratory + View the NASA Portal
+ Center for Near-Earth Object Studies
JPL Home Earth Solar System Stars & Galaxies Technology
JPL Solar System Dynamics
BODIES ORBITS EPHEMERIDES TOOLS PHYSICAL DATA DISCOVERY FAQ SITE MAP
IMPORTANT: The SSD Announcement email list is now available. Major changes are coming in the near future, including possible hostname and/or URL changes. To be notified of such changes, subscribe to this email list.

Please visit this page for more details.


JPL Small-Body Database Browser
Search: [ help ]  
351669 (2006 AZ39)
Classification: Main-belt Asteroid          SPK-ID: 2351669
Ephemeris | Orbit Diagram | Orbital Elements | Mission Design | Physical Parameters | Discovery Circumstances | Close-Approach Data ]

[ hide orbit diagram ]

For accurate long-term ephemerides, please instead use our Horizons system.This orbit viewer was implemented using two-body methods, and hence should not be used for determining accurate long-term trajectories (over several years or decades) or planetary encounter circumstances.


[ revert to old Java-based viewer ]

Orbital Elements at Epoch 2459000.5 (2020-May-31.0) TDB
Reference: JPL 12 (heliocentric ecliptic J2000)
 Element Value Uncertainty (1-sigma)   Units 
e .1655760123233451 7.7032e-08  
a 2.437211294187302 2.2571e-08 au
q 2.033667566906349 1.84e-07 au
i 3.088739211391453 9.4758e-06 deg
node 316.715066218245 0.00012182 deg
peri 344.2976878829589 0.0001244 deg
M 107.935934850309 2.3177e-05 deg
tp 2458583.820862545648
(2019-Apr-10.32086255)
8.9812e-05 TDB
period 1389.754854966518
3.80
1.9306e-05
5.286e-08
d
yr
n .2590384906470955 3.5984e-09 deg/d
Q 2.840755021468254 2.6308e-08 au
  Orbit Determination Parameters
   # obs. used (total)      238  
   data-arc span      6498 days (17.79 yr)  
   first obs. used      2002-01-09  
   last obs. used      2019-10-25  
   planetary ephem.      DE431  
   SB-pert. ephem.      SB431-N16  
   condition code      0  
   norm. resid. RMS      .55689  
   source      ORB  
   producer      Otto Matic  
   solution date      2019-Nov-08 10:48:48  

Additional Information
 Earth MOID = 1.01837 au 
 Jupiter MOID = 2.37721 au 
 T_jup = 3.483 
[ show covariance matrix ]

Ephemeris | Orbit Diagram | Orbital Elements | Mission Design | Physical Parameters | Discovery Circumstances | Close-Approach Data ]

Physical Parameter Table
Parameter Symbol Value Units Sigma Reference Notes
absolute magnitude H 17.1   n/a MPO440579  

351669 (2006 AZ39)          Discovered 2006-Jan-07 by Mt. Lemmon Survey at Mount Lemmon
Reference: 20130127/Numbers.arcLast Updated: 2013-01-31

[ show close-approach data ]
Ephemeris | Orbit Diagram | Orbital Elements | Mission Design | Physical Parameters | Discovery Circumstances | Close-Approach Data ]
ABOUT SSD CREDITS/AWARDS PRIVACY/COPYRIGHT GLOSSARY LINKS
FirstGov 2020-Mar-28 09:10 UT
(server date/time)  
NASA Home Page
Site Manager:   Ryan S. Park
Webmaster  Alan B. Chamberlin